This demonstration page uses our WeatherBlox Daily Observations layout. Learn more.

Left ArrowRight Arrow

Hourly Observations for May 23, 2021

Temp ( °F °C ) Dew Point ( °F °C ) Humidity (%) Winds ( mph kmh ) Pressure ( in mb ) Visibility ( mi km ) Precip ( " mm )
12:53 am 00:53 Clear 65 18.3 59 15 81 81 Calm 30.28 1025 10 16 0.00 0.00
1:53 am 01:53 Clear 64 17.8 60 15.6 87 87 Calm 30.26 1025 10 16 0.00 0.00
2:53 am 02:53 Clear 63 17.2 59 15 87 87 Calm 30.24 1024 10 16 0.00 0.00
3:53 am 03:53 Clear 62 16.7 58 14.4 86 86 Calm 30.24 1024 10 16 0.00 0.00
4:53 am 04:53 Clear 62 16.7 59 15 90 90 Calm 30.23 1024 10 16 0.00 0.00
5:53 am 05:53 Clear 60 15.6 58 14.4 93 93 Calm 30.24 1024 10 16 0.00 0.00
6:53 am 06:53 Sunny 60 15.6 58 14.4 93 93 Calm 30.24 1024 10 16 0.00 0.00
7:53 am 07:53 Sunny 64 17.8 60 15.6 87 87 SSW 3 6 30.25 1024 10 16 0.00 0.00
8:53 am 08:53 Sunny 69 20.6 59 15 70 70 SW 5 7 30.25 1025 10 16 0.00 0.00
9:53 am 09:53 Sunny 76 24.4 60 15.6 58 58 NW 5 7 30.25 1024 10 16 0.00 0.00
10:53 am 10:53 Sunny 80 26.7 62 16.7 54 54 Calm 30.24 1024 10 16 0.00 0.00
11:53 am 11:53 Sunny 83 28.3 62 16.7 49 49 Calm 30.23 1024 10 16 0.00 0.00
12:53 pm 12:53 Sunny 87 30.6 58 14.4 37 37 NNW 6 9 30.21 1023 10 16 0.00 0.00
1:53 pm 13:53 Mostly Sunny 87 30.6 53 11.7 31 31 VRB 3 6 30.18 1022 10 16 0.00 0.00
2:53 pm 14:53 Mostly Sunny 88 31.1 55 12.8 33 33 NNW 10 17 30.16 1021 10 16 0.00 0.00
3:53 pm 15:53 Sunny 89 31.7 52 11.1 28 28 WNW 6 9 30.14 1021 10 16 0.00 0.00
4:53 pm 16:53 Sunny 89 31.7 54 12.2 30 30 NNW 8 13 30.12 1020 10 16 0.00 0.00
5:53 pm 17:53 Sunny 88 31.1 51 10.6 28 28 WNW 6 9 30.12 1020 10 16 0.00 0.00
6:53 pm 18:53 Sunny 87 30.6 53 11.7 31 31 NW 6 9 30.11 1020 10 16 0.00 0.00
7:53 pm 19:53 Sunny 84 28.9 53 11.7 34 34 NW 6 9 30.12 1020 10 16 0.00 0.00
8:53 pm 20:53 Clear 78 25.6 55 12.8 45 45 Calm 30.13 1020 10 16 0.00 0.00
9:53 pm 21:53 Clear 74 23.3 58 14.4 57 57 Calm 30.14 1021 10 16 0.00 0.00
10:53 pm 22:53 Clear 70 21.1 58 14.4 66 66 Calm 30.15 1021 10 16 0.00 0.00
11:53 pm 23:53 Clear 71 21.7 59 15 66 66 Calm 30.15 1021 10 16 0.00 0.00

Powered by AerisWeather